Location: Unspecified
(0.0000°N, 0.0000°E)
Time: 00:11:18
(UTC+00:00)

Hubble Space Telescope - Pass Details

Date: 20 January 2022
Orbit: 534 x 538 km, 28.5° (Epoch: 27 January)

Event Time Altitude Azimuth Distance (km) Brightness Sun altitude
Rises 20:15:36 0° 239° (WSW) 2,669 5.5 -29.1°
Reaches altitude 10° 20:17:51 10° 238° (WSW) 1,778 4.3 -29.6°
Enters shadow 20:19:53 28° 237° (WSW) 1,014 2.7 -30.0°
